Terminal Aerodrome Forecast
Issued by NWS New Orleans/Baton Rouge, LA

Home | Current Version | Previous Version | Text Only | Print | Product List | Glossary On
Versions: 1 2 3 4 5 6 7 8 9 10 11 12 13 14 15 16 17 18 19 20 21 22 23 24 25 26 27 28 29 30 31 32 33 34 35 36
000
FTUS44 KLIX 252300 AAA
TAFNEW
TAF AMD
KNEW 252359Z 2600/2624 33015KT P6SM SCT130 BKN250
     FM260700 33008KT P6SM SKC
     FM261600 26007KT P6SM SKC
     FM262100 24011KT P6SM SKC=

USA.gov is the U.S. government's official web portal to all federal, state and local government web resources and services.